CZ-6A DEB, 56266

Orbit data source: Space-Track

CZ-6A DEB, 56266 is space debris in SSO originally from a launch on Fri, 11 Nov 2022 UTC launched from the Taiyaun Space Center, China (TSC). Debris objects in space refer to the collection of defunct objects orbiting the Earth. Examples of debris include non-operational satellites, rocket bodies, and fragments generated from explosions, collisions, or faulty payload assembly.

Loading next visibility...
Identifier
56266, 2022-151ACJ
Orbit
SSO
Country
Flag of CNCN / PRC
Related business
Manufacturer
SAST
Mission
Spacecraft
Bus & Motor
Unknown
Mass
Unknown
Launch date (UTC)
2022-11-11 (3 years ago)
Launch vehicle
Unknown
Launch site
Taiyaun Space Center, China (TSC)
Object type
Payload
Rocket body
Debris
Shape & HBR
Unknown shape, 0.1 m
Radar Cross Section
Small (<0.1 m²)

Expand to show TLE details & history
Last TLE update: 1 day ago

TLE from 1 day ago
0 CZ-6A DEB
1 56266U 22151ACJ 26129.40141857 -.00000044  00000-0 -13668-5 0  9995
2 56266  98.9484 105.3122 0119482 184.0447 175.9760 13.93846641159629
Epoch: 2026-05-09T09:38Z
TLE epoch observation values (Epoch: 2026-05-09T09:38:02.564Z)
Latitude
0.00003°
Longitude
93.58213°
Altitude
1,005.002 km
Speed
7.305 km/s
True Right ascension
07h 01m 14s
True Declination
0° 00' 00"
Sunlit
Object was in daylight at epoch
Visualization orbit readout
Latitude
Unknown
Longitude
Unknown
Altitude
Unknown
Speed
Unknown
Apparent Right ascension
Unknown
Apparent Declination
Unknown
Sunlit
N/A
Visualization observer readout
Local Sidereal Time
22:09:13
Azimuth
Unknown
Elevation
Unknown
Doppler factor
Unknown
Orbital elements
Apogee altitude
999.495 km
Perigee altitude
825.277 km
Semi-major axis
7,290.523 km
Eccentricity
0.01195
Inclination
98.9484°
RAAN
105.3122°
Arg. of periapsis
184.0447°
True anomaly
176.07067°
Mean anomaly
175.976°
Eccentric anomaly
176.02347°
Mean motion
3.48662 °/min
Orbital period
103.25 mins
BSTAR
-0.0000013668
Loading maneuver chart data...
Computing Atmospheric mass density...
Loading historical data...
Loading historical data...
Loading historical data...
Loading historical data...
Loading historical data...
Loading historical data...
Loading historical data...

Documentation

Showing up to 5 results
|